Warning: Javascript must be enabled to use all the features on this page!


Page Loading - Please Wait...

* We've detected you're using a mobile device. Find our Next Generation Station Page here.
Click to hideNews Bulletins

Peak Streamflow for the Nation

USGS 05107500 ROSEAU RIVER AT ROSS, MN

Roseau County, Minnesota
Hydrologic Unit Code 09020314
Latitude  48°54'37", Longitude  95°55'18" NAD27
Drainage area 1,090  square miles
Gage datum 1,018.61 feet above NGVD29
Output formats
Table
Graph
Tab-separated file
peakfq (watstore) format
Reselect output format
Water
Year
Date Gage
Height
(feet)
Stream-
flow
(cfs)
1919 1919-07 17.50Bd 5,2507,Bd
1927 1927 16.00Bm 2,8507,Bm
1929 1929-04-08 8.722 953
1930 1930-05-17 10.74 1,460
1931 1931-04-07   6531
1932 1932-04-13 11.401 1,550
1933 1933-04-21 8.652 912
1934 1934-04-08 7.201 332
1935 1935-04-12 8.622 637
1936 1936-04-23 10.481 1,280
1937 1937-05-05 11.95 1,600
1938 1938-05-18 14.64 2,290
1939 1939-06-20 3.91 203
1940 1940-04-21 8.062 730
1941 1941-04-18 14.32 2,230
1942 1942-04-04 14.91 2,400
1943 1943-04-13 13.12 1,910
1944 1944-06-24 10.79 1,390
1945 1945-04-03 13.04 1,800
1946 1946-03-29 11.82 1,550
1947 1947-06-18 14.38 2,400
1948 1948-04-29 15.88 3,220
1949 1949-04-16 11.95 1,730
1950 1950-05-12 18.25 6,560
1951 1951-04-20 14.70 2,580
1952 1952-04-10   7601
1953 1953-06-04 7.332 640
1954 1954-05-08 9.71 1,140
1955 1955-06-10 9.37 980
1956 1956-04-29 13.71 2,150
1957 1957-07-16 11.89 1,600
1958 1958-07-18 8.06 786
1959 1959-04-10 11.42 1,530
1960 1960-04-18 11.55 1,560
1961 1961-03-25 8.911 570
1962 1962-06-17 13.86 2,120
1963 1963-04-13 11.51 1,550
1964 1964-06-25 12.37 1,770
1965 1965-04-20 16.50 3,780
1966 1966-04-21 17.17 4,670
1967 1967-04-30 14.98 2,860
1968 1968-06-18 14.35 2,370
1969 1969-04-20 16.36 3,500
1970 1970-05-04 15.99 3,440
1971 1971-04-14 11.36 1,520
1972 1972-04-25   1,8601
1973 1973-09-27 8.78 893
1974 1974-04-27 16.41 3,550
1975 1975-04-28 15.912 3,280
1976 1976-04-05 10.222 1,230
1977 1977-04-11 4.812 267
1978 1978-04-23 14.83 2,560
1979 1979-04-29 17.31 4,570
1980 1980-04-11 10.15 1,220
1981 1981-06-30 8.25 821
1982 1982-04-21 13.04 1,850
1983 1983-04-06 11.601 1,310
1984 1984-04-02 10.362 1,260
1985 1985-07-05 13.27 2,010
1986 1986-05-08 15.38 2,800
1987 1987-04-04 10.47 1,290
1988 1988-04-09 8.962 882
1989 1989-04-27 11.542 1,560
1990 1990-04-01 7.151,2 310
1991 1991-07-12 11.22 1,240
1995 1995-05-14 9.23 998
1996 1996-05-23 17.40 4,530
1997 1997-04-26 17.30 4,670
1998 1998-05-21 11.87 1,650
1999 1999-04-16 15.15 2,730
2000 2000-06-27 12.06 1,620
2001 2001-04-18 15.11 2,640
2002 2002-06-16 18.89 10,500
2003 2003-09-20 7.952 714
2004 2004-05-21 16.77 4,300
2005 2005-07-08 14.62 2,480
2006 2006-04-11 16.14 3,300
2007 2007-04-04 11.30 1,3001,2
2008 2008-06-17 10.54 1,1801,2
2009 2009-04-21 16.35 3,460
2010 2010-03-19 12.61 1,820
2011 2011-04-17 15.94 3,380
2012 2012-03-17 8.122 747
2013 2013-06-04 12.91 1,920
2014 2014-05-18 14.78 2,580
2015 2015-06-11 11.47 1,510
2016 2016-03-20 12.551 1,8102
2017 2017-04-06 13.53 2,240
2018 2018-04-22 9.141,2 1,0002
2019 2019-04-11 12.18 1,810
2020 2019-10-18 17.40 3,840
2021 2021-05-25 5.892 414
?
  Peak Gage-Height Qualification Codes.
?
  Peak Streamflow Qualification Codes.